Wetbulb
33.49 33.75 34.13 34.54 34.89 35.34 35.75 36.35 36.77 37.41 38.06 38.58 39.00 39.61 40.09 40.40 40.40 40.90 41.58 42.16 42.65 43.16 43.60 44.19 44.40 44.52 44.40 43.90 43.86 43.95 44.03 44.16 44.15 43.93 43.75 43.93 44.58 44.84 45.01 45.14 45.36 45.36 45.45 45.57 45.83 46.31 46.92 47.62 48.22 48.58 49.07 49.30 49.58 50.19 50.85 51.68 52.96 54.24 55.51 56.71 57.38 57.86 58.20 58.30 58.62 59.04 59.50 60.02 60.21
32.98 33.37 33.70 33.92 34.20 34.67 35.18 35.62 36.18 36.94 37.68 38.36 38.95 39.64 40.17 40.50 40.50 40.80 41.27 41.65 42.35 42.95 43.48 43.90 43.94 44.10 44.07 43.86 43.82 44.03 44.03 44.15 44.07 43.93 44.01 44.05 44.41 44.71 44.84 45.01 45.23 45.36 45.44 45.58 45.71 46.23 46.96 47.49 48.09 48.81 49.44 50.04 50.35 50.68 51.01 51.80 52.86 53.84 54.71 56.12 57.20 57.95 58.30 58.32 58.50 58.59 58.86 59.49 60.14
32.70 33.17 33.52 33.88 34.19 34.55 35.04 35.60 36.28 36.99 37.66 38.32 38.97 39.83 40.60 41.26 41.60 41.89 42.10 42.24 42.85 43.29 43.64 43.95 44.19 44.23 44.20 44.20 44.28 44.33 44.45 44.41 44.32 44.28 44.36 44.58 44.62 44.67 44.80 44.92 45.05 45.14 45.18 45.57 45.93 46.32 46.79 47.09 47.52 48.08 48.75 49.76 50.54 51.16 51.86 52.41 53.05 53.69 54.33 55.58 56.86 57.70 58.13 58.30 58.27 58.34 58.60 58.99 59.40
32.69 33.06 33.37 33.66 34.05 34.45 34.90 35.41 35.91 36.43 37.06 37.73 38.44 39.09 39.79 40.47 40.79 41.12 41.41 41.74 42.24 42.80 43.33 43.69 44.07 44.41 44.53 44.79 44.67 44.75 44.63 44.32 44.28 44.36 44.45 44.71 44.71 44.88 44.84 45.01 44.92 45.10 45.36 45.66 45.84 46.10 46.41 46.75 47.13 47.59 48.10 48.69 49.45 50.73 51.96 53.39 53.96 54.35 54.90 55.69 56.71 57.47 57.90 58.05 58.03 58.00 58.14 58.32 58.60
32.62 33.13 33.43 33.77 34.14 34.50 35.01 35.53 35.73 36.17 36.68 37.36 37.95 38.64 39.34 40.24 40.90 41.41 41.91 42.21 42.61 43.12 43.49 43.77 44.03 44.33 44.58 44.96 44.93 44.97 44.88 44.67 43.84 44.01 44.67 44.67 44.80 44.97 45.06 45.10 45.01 45.05 45.23 45.40 45.66 45.97 46.23 46.41 47.08 47.41 47.72 48.01 48.68 49.81 51.36 53.45 55.09 56.08 56.53 56.68 57.05 57.32 57.74 57.90 57.85 57.82 57.89 57.90 58.08
32.48 33.17 33.65 34.08 34.34 34.61 34.98 35.44 35.61 35.94 36.31 36.95 37.27 37.66 38.19 39.10 40.03 40.82 41.65 42.27 42.84 43.36 43.73 43.74 43.75 43.76 44.02 44.62 44.84 45.01 45.10 45.01 44.75 44.88 44.88 44.83 44.97 45.01 45.06 45.10 45.18 45.23 45.36 45.36 45.40 45.71 46.01 46.23 46.74 47.07 47.50 47.84 48.34 49.31 50.76 52.78 54.95 56.33 57.03 57.32 57.70 57.63 57.41 57.69 57.79 57.81 57.71 57.41 57.50
32.66 33.00 33.46 33.94 34.26 34.53 34.70 35.06 35.50 35.74 36.13 36.65 36.76 37.11 37.57 38.34 39.04 39.76 40.47 41.16 41.89 42.48 42.93 42.98 43.42 43.77 44.17 44.65 44.91 45.05 45.23 45.23 45.36 45.23 45.14 45.14 45.18 45.09 44.96 45.18 45.27 45.27 45.31 45.36 45.31 45.49 45.75 46.01 46.40 46.47 46.51 46.68 47.74 48.95 50.35 52.03 53.96 55.38 56.10 56.46 57.30 57.71 57.67 57.56 57.75 57.81 57.71 57.32 56.91
32.77 33.09 33.37 33.76 34.10 34.37 34.64 34.92 35.35 35.64 36.01 36.39 36.70 37.03 37.63 38.34 38.87 39.59 40.17 40.68 41.21 41.68 41.98 42.23 42.92 43.52 43.95 44.43 44.65 44.87 45.18 45.31 45.44 45.49 45.49 45.49 45.31 45.18 45.22 45.13 45.22 45.18 45.40 45.57 45.40 45.40 45.49 45.84 46.14 46.30 46.34 46.69 47.26 48.13 49.25 51.00 52.64 54.00 55.13 55.64 56.36 56.85 57.29 57.74 57.90 57.90 57.54 56.96 56.60
32.50 32.95 33.39 33.74 34.08 34.39 34.73 34.99 35.35 35.54 35.87 36.13 36.55 37.05 37.69 38.13 38.67 39.28 39.64 40.03 40.54 40.91 41.19 41.60 42.08 42.71 43.47 43.99 44.30 44.61 45.05 45.27 45.44 45.66 45.79 45.88 45.66 45.57 45.48 45.39 45.22 45.26 45.35 45.57 45.44 45.44 45.49 45.79 45.96 46.13 46.30 46.59 46.88 47.51 48.37 49.66 51.09 52.31 53.55 54.76 55.58 56.22 56.67 57.21 57.33 57.32 57.23 56.88 56.43
32.22 32.75 33.12 33.57 33.92 34.44 34.83 35.10 35.35 35.64 35.84 36.05 36.65 37.06 37.43 37.69 38.22 38.75 39.21 39.71 40.23 40.70 40.96 41.27 41.69 42.23 42.98 43.62 44.07 44.39 44.96 45.31 45.61 46.01 46.28 46.28 46.14 45.96 45.88 45.83 45.57 45.44 45.30 45.48 45.53 45.49 45.58 45.97 46.05 46.05 46.19 46.40 46.49 46.84 47.64 48.65 49.67 50.69 51.81 53.16 54.60 55.52 56.21 56.49 56.57 56.88 56.87 56.57 56.34
32.22 32.75 33.14 33.48 34.02 34.50 34.84 35.09 35.31 35.65 35.96 36.25 36.72 37.27 37.77 37.94 38.48 39.01 39.56 40.18 40.60 40.96 41.22 41.72 42.07 42.54 43.06 43.41 43.81 44.30 44.78 45.30 45.74 46.05 46.41 46.54 46.45 46.50 46.68 46.50 46.14 45.83 45.74 45.70 45.66 45.79 45.97 46.19 45.97 45.97 46.01 46.14 46.36 46.67 47.25 48.12 49.01 49.85 50.73 51.94 53.44 54.68 55.61 56.03 56.31 56.61 56.82 56.55 56.28
32.40 32.84 33.32 33.70 34.22 34.51 34.80 35.00 35.26 35.70 36.06 36.43 36.85 37.35 37.80 38.39 38.84 39.38 39.90 40.47 40.68 41.14 41.78 42.39 42.87 43.26 43.54 43.74 44.35 44.73 45.17 45.79 46.10 46.36 46.54 46.81 46.90 47.12 47.03 46.94 46.76 46.50 46.28 46.19 46.32 46.37 46.28 46.28 46.10 45.84 45.79 45.97 46.32 46.72 47.12 47.73 48.61 49.27 50.11 51.32 52.67 54.00 55.02 55.67 56.13 56.48 56.60 56.53 56.26
32.68 33.08 33.50 33.86 34.29 34.58 34.78 34.90 35.28 35.56 36.06 36.34 36.93 37.47 38.01 38.60 39.28 39.81 40.29 40.68 40.90 41.49 42.17 42.81 43.26 43.74 44.06 44.26 44.82 45.48 46.18 46.59 46.76 46.81 46.81 46.94 47.21 47.34 47.34 47.17 47.12 47.03 46.85 46.72 46.99 46.85 46.59 46.45 46.23 46.05 45.83 45.79 46.19 46.72 47.03 47.82 48.43 49.18 50.07 51.15 52.28 53.37 54.38 55.38 55.80 56.21 56.48 56.55 56.27
32.99 33.24 33.58 33.97 34.24 34.44 34.55 34.67 35.19 35.64 36.10 36.52 37.11 37.73 38.45 39.00 39.50 39.86 40.33 40.60 40.86 41.23 41.81 42.31 42.76 43.21 43.83 44.54 45.11 45.78 46.50 47.17 47.53 47.57 47.48 47.35 47.52 47.57 47.57 47.48 47.43 47.34 47.25 47.21 47.21 47.08 46.72 46.32 46.28 46.10 45.88 45.79 46.01 46.41 46.98 47.90 48.39 49.32 50.31 51.21 52.16 53.02 53.88 54.78 55.64 56.16 56.31 56.21 56.06
32.97 33.31 33.58 33.93 33.97 34.25 34.36 34.67 35.27 35.73 36.28 36.66 37.30 38.01 38.55 38.91 39.22 39.50 39.86 40.12 40.30 40.71 41.24 41.72 42.12 42.79 43.51 44.49 45.15 45.82 46.54 47.30 47.93 48.20 48.29 48.02 47.97 47.88 47.88 47.75 47.75 47.61 47.61 47.52 47.39 47.21 46.94 46.50 46.28 46.19 46.01 46.01 46.14 46.45 46.94 47.86 48.48 49.46 50.63 51.68 52.31 52.80 53.38 54.09 55.13 55.92 56.12 56.04 56.03
32.78 33.13 33.40 33.67 33.79 34.07 34.36 34.74 35.36 35.99 36.46 36.88 37.44 37.80 38.16 38.43 38.75 39.10 39.32 39.67 39.94 40.39 40.83 41.23 41.76 42.52 43.32 43.99 44.84 45.73 46.32 47.12 47.93 48.47 48.78 48.74 48.56 48.38 48.24 48.02 47.84 47.79 47.79 47.70 47.52 47.34 47.21 46.76 46.59 46.45 46.45 46.19 46.36 46.50 46.90 47.73 48.44 49.46 50.63 51.77 52.18 52.44 52.93 53.32 54.44 55.41 56.15 56.03 55.86
32.55 32.87 33.15 33.49 33.69 33.90 34.37 34.85 35.46 36.00 36.33 36.75 37.09 37.50 37.69 37.95 38.40 38.66 38.79 39.08 39.53 40.06 40.42 40.87 41.62 42.33 42.91 43.45 44.43 45.42 46.22 46.99 47.75 48.38 49.05 49.37 49.28 48.91 48.60 48.33 48.10 48.15 48.06 47.79 47.57 47.43 47.17 46.94 46.85 46.85 46.81 46.54 46.63 46.76 47.03 47.69 48.49 49.33 50.36 51.53 51.95 52.27 52.40 52.40 53.46 54.86 55.81 56.16 55.77
32.37 32.78 33.22 33.44 33.78 34.08 34.52 34.87 35.44 35.79 36.07 36.41 36.81 37.14 37.51 37.95 38.30 38.60 38.87 39.13 39.53 39.88 40.15 40.69 41.40 42.07 42.69 43.32 44.17 44.88 45.64 46.54 47.30 48.20 49.10 49.72 49.85 49.76 49.32 48.78 48.46 48.32 48.32 48.15 47.75 47.52 47.26 46.90 46.85 46.85 46.85 46.76 46.81 46.99 47.30 47.83 48.27 49.07 50.05 51.03 51.72 52.13 52.30 52.30 53.15 54.27 55.32 56.10 55.95
32.35 32.72 33.13 33.44 33.87 34.14 34.44 34.80 35.23 35.59 36.04 36.48 36.84 37.21 37.71 38.15 38.55 38.81 39.16 39.44 39.76 40.07 40.42 40.73 41.35 41.89 42.52 42.96 43.76 44.25 44.88 45.95 46.67 47.70 48.69 49.76 50.21 50.30 49.94 49.50 48.96 48.64 48.50 48.33 48.01 47.70 47.43 47.08 46.90 46.81 46.76 46.76 46.85 46.99 47.16 47.56 48.00 48.76 49.64 50.67 51.58 52.12 52.48 52.69 53.18 53.85 54.72 55.58 55.88
32.15 32.51 32.95 33.31 33.70 34.17 34.52 34.96 35.32 35.77 36.25 36.70 37.06 37.42 37.77 38.27 38.64 38.90 39.12 39.56 40.03 40.47 40.69 40.90 41.17 41.62 42.25 42.83 43.41 43.94 44.52 45.51 46.41 47.35 48.33 49.50 50.08 50.44 50.35 49.90 49.32 48.87 48.64 48.37 48.01 47.75 47.48 47.21 47.03 46.85 46.81 46.68 46.76 46.85 46.99 47.30 47.83 48.40 49.11 50.04 51.30 52.16 52.66 52.88 53.18 53.71 54.25 55.02 55.75
31.88 32.27 32.79 33.31 33.78 34.16 34.55 35.18 35.63 35.98 36.34 36.78 37.06 37.42 37.86 38.40 38.85 39.21 39.56 39.97 40.56 40.87 41.13 41.26 41.44 41.71 42.07 42.56 43.10 43.72 44.39 45.33 46.32 47.21 48.11 49.00 49.72 50.26 50.53 50.17 49.63 49.00 48.69 48.33 48.06 47.79 47.52 47.17 46.99 46.85 46.76 46.63 46.76 46.76 46.90 47.07 47.43 47.87 48.66 49.60 51.13 52.25 53.02 53.19 53.41 53.80 54.16 54.65 55.47
31.60 32.27 32.79 33.35 33.82 34.25 34.73 35.27 35.72 36.15 36.42 36.87 37.32 37.85 38.39 38.93 39.42 39.91 40.46 40.86 41.13 41.17 41.35 41.52 41.79 41.98 42.34 42.74 43.19 43.81 44.48 45.42 46.41 47.39 48.20 49.10 49.73 49.99 50.17 50.00 49.55 48.83 48.38 48.11 47.88 47.70 47.44 47.17 46.99 46.85 46.85 46.81 46.94 46.94 46.94 46.99 47.21 47.60 48.26 49.28 50.67 52.11 53.19 53.47 53.77 53.94 54.30 54.74 55.37
31.37 32.13 32.87 33.33 33.82 34.25 34.64 35.09 35.70 36.15 36.60 37.18 37.89 38.43 39.06 39.42 39.82 40.10 40.55 40.82 40.85 40.94 41.21 41.57 41.97 42.34 42.87 43.28 43.72 44.30 44.84 45.60 46.49 47.48 48.29 49.19 49.64 49.82 49.82 49.59 49.05 48.47 48.02 47.84 47.75 47.57 47.39 47.12 46.90 46.90 46.94 46.99 47.12 47.12 47.16 47.21 47.38 47.83 48.49 49.19 50.54 52.07 53.20 53.70 53.92 54.27 54.75 55.29 55.63
31.28 31.95 32.62 33.29 33.62 34.07 34.46 34.99 35.52 36.19 36.82 37.53 38.16 38.70 38.97 39.15 39.38 39.56 39.83 40.18 40.49 40.85 41.38 42.00 42.64 43.27 43.77 44.30 44.84 45.15 45.51 46.00 46.67 47.48 48.20 48.92 49.23 49.23 49.24 48.92 48.43 48.07 47.75 47.75 47.30 46.94 46.67 46.40 46.85 46.90 46.90 46.94 47.17 47.39 47.61 47.92 48.18 48.54 49.03 49.74 50.86 52.31 53.39 54.03 54.23 54.62 55.16 55.69 56.06
31.46 31.83 32.39 32.91 33.19 33.62 34.20 34.72 35.47 36.27 36.99 37.70 37.98 38.16 38.25 38.43 38.79 39.15 39.59 39.86 40.40 41.03 41.75 42.46 43.09 43.71 44.52 45.15 45.78 46.31 46.72 46.90 47.17 47.53 47.98 48.38 48.47 48.56 48.29 47.93 47.75 47.71 47.35 46.72 45.24 44.52 44.34 44.34 45.78 46.50 46.85 46.94 47.30 47.79 48.37 48.85 49.39 49.88 50.42 50.91 51.77 52.59 53.50 54.13 54.51 54.99 55.44 55.88 56.21
31.19 31.46 31.81 32.35 32.74 33.26 33.66 34.45 35.46 36.27 36.90 37.34 37.36 37.52 37.70 38.06 38.59 39.04 39.40 39.76 40.30 40.85 41.48 41.92 42.45 42.85 43.61 45.14 46.22 47.03 47.57 47.75 47.66 47.57 47.57 47.62 47.62 47.44 47.30 47.03 47.03 47.26 46.99 45.64 43.57 42.81 42.73 43.23 43.73 44.44 45.65 47.43 47.61 47.97 48.59 49.49 50.56 51.50 52.09 52.44 52.77 53.22 53.59 53.86 54.20 54.77 55.31 55.94 56.18
30.74 30.96 31.40 31.94 32.30 32.73 33.39 34.58 35.55 36.18 36.54 36.63 36.72 36.90 37.33 37.87 38.36 38.59 38.78 39.05 39.51 40.04 40.57 40.97 41.51 41.90 43.02 45.45 46.63 47.26 47.48 47.39 47.39 47.30 47.21 46.85 46.67 46.49 46.40 46.40 46.49 46.76 46.40 44.51 42.53 41.81 41.78 42.37 42.66 43.19 44.44 46.99 47.52 47.97 48.50 49.40 51.06 52.41 53.37 53.55 53.68 53.67 53.66 53.79 54.06 54.47 55.11 55.83 56.15
30.15 30.51 30.96 31.37 31.67 32.46 33.39 34.54 35.20 35.64 35.82 36.00 36.27 36.54 37.08 37.36 37.53 37.71 37.97 38.24 38.69 39.04 39.52 40.06 40.78 41.90 43.55 45.68 46.62 46.90 46.94 46.76 46.76 46.81 46.76 46.58 46.31 46.09 46.00 45.95 46.22 45.95 44.96 43.11 41.94 41.45 41.51 42.01 42.21 42.53 43.15 44.39 47.08 48.10 48.54 49.26 50.97 52.51 53.61 53.70 53.82 54.13 54.15 54.23 54.51 54.93 55.29 55.70 55.98
29.75 30.05 30.48 30.69 31.23 32.12 33.09 34.09 34.58 35.01 35.37 35.73 36.09 36.37 36.60 36.78 36.78 37.00 37.09 37.36 37.61 37.91 38.30 39.10 40.05 41.21 42.56 43.92 45.54 46.26 46.40 46.31 46.40 46.22 46.13 46.04 45.59 45.73 45.91 46.00 46.09 45.05 43.43 41.67 41.45 41.32 41.38 41.71 41.72 41.78 42.14 43.29 46.14 47.78 48.71 49.43 51.11 52.47 53.48 53.84 54.33 54.53 54.66 54.74 55.11 55.43 55.61 55.89 56.03
29.48 29.69 29.98 30.24 30.87 31.76 32.64 33.47 34.04 34.58 35.03 35.55 35.74 35.88 35.81 35.88 36.01 36.10 36.18 36.27 36.65 37.13 37.79 38.42 39.14 39.68 40.32 41.27 43.74 45.27 45.81 45.81 45.95 45.86 45.68 45.59 44.87 45.10 45.46 45.37 46.04 45.28 43.43 41.18 41.33 41.30 41.40 41.45 41.37 41.15 41.16 41.60 44.13 47.03 49.03 49.97 51.69 52.88 53.66 54.30 54.77 55.02 55.20 55.29 55.38 55.52 55.80 56.03 55.94
29.12 29.40 29.62 29.98 30.60 31.31 32.19 32.94 33.66 34.20 34.72 35.03 35.12 35.12 35.03 35.10 35.10 35.36 35.49 35.74 36.14 36.59 37.21 37.76 37.94 38.21 38.80 39.79 41.81 44.01 45.54 45.36 45.32 45.23 45.23 45.10 44.33 44.56 45.06 45.42 45.73 45.06 43.43 41.27 41.29 41.35 41.37 41.42 41.25 40.90 40.62 40.27 42.48 45.65 48.63 50.47 52.42 53.79 54.56 54.87 55.26 55.38 55.56 55.71 55.61 55.52 55.43 55.70 55.76
28.86 28.98 29.32 29.62 30.15 30.87 31.76 32.57 33.19 33.62 34.02 34.29 34.36 34.40 34.38 34.46 34.55 34.86 35.22 35.47 35.78 36.23 36.46 36.65 36.73 36.91 37.54 38.44 39.65 41.76 43.92 45.36 44.78 44.51 44.47 44.47 44.34 44.43 44.75 45.02 45.02 44.16 42.85 41.63 41.45 41.46 41.44 41.60 41.30 40.95 40.50 39.65 41.32 44.31 47.57 49.75 52.24 53.87 54.86 55.20 55.37 55.55 55.79 55.85 55.71 55.34 55.11 55.25 55.44
28.43 28.68 28.89 29.23 29.85 30.57 31.28 31.90 32.57 33.00 33.39 33.57 33.73 33.68 33.76 33.92 34.28 34.55 34.82 35.11 35.42 35.60 35.78 35.78 35.69 35.90 36.17 36.89 37.79 39.05 40.85 43.14 44.46 44.19 43.52 43.48 43.44 43.63 43.95 44.21 44.25 43.36 42.19 41.71 41.46 41.27 41.27 41.48 41.37 41.03 40.51 39.61 41.37 43.83 46.45 48.49 51.52 53.57 54.83 55.53 55.55 55.63 55.91 55.83 55.70 55.43 55.16 55.07 55.25
28.08 28.41 28.62 28.89 29.58 30.12 30.74 31.31 31.83 32.37 32.64 32.76 33.02 33.14 33.31 33.40 33.65 33.87 34.12 34.43 34.96 35.23 35.50 35.50 35.41 35.45 35.71 36.07 36.69 37.33 38.23 39.40 41.61 43.60 44.82 44.65 44.34 43.90 43.85 44.30 44.79 43.72 42.29 41.64 41.41 41.20 41.13 41.31 41.33 41.17 40.66 39.81 41.81 43.92 46.06 47.69 50.53 52.85 54.48 55.05 55.53 55.83 55.73 55.83 55.65 55.47 55.38 55.11 55.38
27.88 28.09 28.27 28.71 29.16 29.67 30.12 30.60 31.05 31.57 31.83 31.87 32.12 32.52 32.70 32.95 33.11 33.40 33.62 33.88 34.42 34.88 35.15 35.15 35.20 35.11 35.24 35.51 35.77 36.17 36.71 37.61 38.87 40.31 41.93 43.96 44.55 44.33 43.88 43.66 43.79 42.49 41.06 40.70 40.87 41.00 41.20 41.42 41.34 41.22 40.88 40.31 42.69 44.94 46.63 47.87 50.08 51.81 52.76 53.12 53.61 53.96 54.18 54.18 54.36 54.67 55.01 55.41 55.50
27.70 27.82 28.00 28.27 28.89 29.25 29.60 29.94 30.33 30.60 30.94 31.06 31.44 31.71 32.05 32.41 32.84 33.24 33.49 33.71 33.94 34.30 34.48 34.50 34.50 34.41 34.32 34.32 34.66 34.96 35.36 36.17 37.07 37.97 38.87 39.78 40.85 41.48 41.70 41.52 41.34 40.16 38.90 38.71 39.20 40.10 40.92 41.46 41.55 41.15 41.20 42.17 44.74 46.49 47.97 49.01 49.33 48.61 47.89 47.80 47.66 48.16 48.61 48.74 48.92 49.91 51.48 53.40 54.29
27.52 27.73 27.89 28.16 28.44 28.71 29.07 29.40 29.67 29.80 30.05 30.26 30.72 31.15 31.59 31.95 32.48 32.93 33.33 33.49 33.67 33.67 33.76 33.78 33.69 33.58 33.49 33.53 33.71 34.06 34.51 34.97 35.51 36.13 36.76 37.39 38.11 38.60 39.14 39.49 39.94 38.99 37.93 37.84 38.65 39.64 40.82 41.73 41.55 41.37 41.92 44.41 46.81 48.02 48.47 48.52 46.99 45.22 43.69 42.87 42.23 41.69 41.33 41.15 41.78 42.60 44.05 46.63 47.57
27.34 27.55 27.80 27.89 28.09 28.35 28.62 28.96 28.99 29.15 29.37 29.72 30.33 30.81 31.41 31.77 32.07 32.52 32.97 33.08 33.16 33.08 33.08 33.22 33.17 33.08 33.17 33.22 33.35 33.53 33.85 34.21 34.39 34.70 35.06 35.68 36.31 36.98 37.43 37.87 38.32 38.13 37.80 37.89 38.75 39.83 40.91 41.91 41.73 41.91 43.18 46.26 47.53 47.71 47.17 45.99 44.23 42.96 42.14 41.60 40.88 39.97 39.61 40.24 40.61 40.06 39.47 39.65 39.65
27.16 27.46 27.55 27.80 27.89 28.09 28.27 28.42 28.55 28.73 28.97 29.33 29.87 30.42 30.98 31.41 31.88 32.33 32.79 33.04 33.08 32.90 32.90 32.81 32.81 32.98 33.08 33.13 33.04 33.04 33.13 33.42 33.60 33.76 33.98 34.42 35.05 35.59 36.04 36.44 36.97 37.23 37.41 37.72 38.62 39.56 40.64 41.55 41.82 42.45 43.63 45.85 46.54 46.17 45.00 43.73 42.38 41.61 41.25 41.07 40.88 40.52 40.24 40.61 40.88 40.61 39.70 38.25 38.89
27.10 27.34 27.43 27.55 27.73 27.89 27.98 27.98 28.16 28.51 28.87 29.17 29.51 29.90 30.37 31.05 31.53 32.13 32.75 32.93 32.97 32.95 32.87 32.78 32.81 32.90 33.08 33.04 32.69 32.51 32.42 32.61 32.97 33.06 33.22 33.40 34.12 34.59 35.04 35.23 35.90 36.34 36.70 37.33 38.13 38.98 39.92 40.83 41.64 42.19 43.18 44.77 45.18 44.82 43.83 42.74 41.75 41.02 40.70 40.79 40.70 40.43 40.34 40.25 40.43 40.34 39.98 39.26 39.08
26.94 27.10 27.10 27.34 27.52 27.73 27.80 27.74 28.07 28.41 28.70 28.98 29.26 29.72 30.26 30.87 31.44 31.96 32.23 32.48 32.50 32.66 32.61 32.60 32.70 32.79 32.88 32.79 32.51 32.15 31.89 31.80 32.16 32.43 32.61 32.75 33.20 33.65 33.96 34.16 34.70 35.41 36.08 36.80 37.43 38.23 39.04 39.98 40.79 41.42 42.23 43.50 44.19 44.01 43.29 42.48 41.48 40.57 39.98 40.07 40.12 40.03 39.98 39.80 39.85 39.76 39.58 39.71 39.35
MSLP
1009.36 1009.16 1009.00 1008.76 1008.52 1008.28 1008.00 1007.72 1007.48 1007.32 1007.04 1006.80 1006.52 1006.24 1006.00 1005.76 1005.44 1005.12 1004.84 1004.60 1004.28 1004.04 1003.84 1003.60 1003.40 1003.24 1003.16 1003.04 1003.00 1002.96 1002.92 1002.88 1002.88 1002.88 1002.88 1002.88 1002.88 1002.88 1002.96 1003.00 1003.04 1003.08 1003.12 1003.16 1003.16 1003.20 1003.28 1003.32 1003.36 1003.36 1003.32 1003.28 1003.20 1003.16 1003.12 1003.00 1003.00 1002.92 1002.88 1002.88 1002.84 1002.80 1002.84 1002.88 1002.88 1002.92 1003.00 1003.08 1003.16
1009.16 1009.00 1008.80 1008.60 1008.40 1008.16 1007.88 1007.56 1007.32 1007.08 1006.88 1006.60 1006.32 1006.04 1005.80 1005.56 1005.24 1004.92 1004.64 1004.40 1004.16 1003.96 1003.72 1003.44 1003.28 1003.12 1003.00 1002.88 1002.84 1002.76 1002.72 1002.68 1002.64 1002.60 1002.64 1002.64 1002.64 1002.64 1002.72 1002.72 1002.80 1002.84 1002.88 1002.92 1003.00 1003.00 1003.04 1003.08 1003.12 1003.08 1003.00 1003.00 1002.92 1002.88 1002.80 1002.80 1002.80 1002.76 1002.72 1002.64 1002.60 1002.60 1002.60 1002.60 1002.60 1002.68 1002.76 1002.88 1002.92
1009.00 1008.76 1008.60 1008.40 1008.16 1007.92 1007.64 1007.32 1007.04 1006.80 1006.60 1006.36 1006.12 1005.88 1005.60 1005.32 1004.96 1004.68 1004.40 1004.16 1004.00 1003.76 1003.56 1003.32 1003.08 1002.92 1002.80 1002.68 1002.60 1002.52 1002.44 1002.44 1002.40 1002.40 1002.40 1002.36 1002.36 1002.40 1002.44 1002.52 1002.60 1002.60 1002.64 1002.72 1002.76 1002.76 1002.80 1002.88 1002.88 1002.88 1002.80 1002.72 1002.68 1002.60 1002.48 1002.44 1002.52 1002.48 1002.44 1002.44 1002.44 1002.44 1002.40 1002.36 1002.36 1002.44 1002.60 1002.64 1002.72
1008.72 1008.52 1008.28 1008.08 1007.88 1007.64 1007.40 1007.12 1006.80 1006.60 1006.36 1006.16 1005.88 1005.68 1005.44 1005.12 1004.80 1004.48 1004.20 1004.00 1003.80 1003.60 1003.40 1003.16 1002.96 1002.72 1002.60 1002.44 1002.36 1002.28 1002.20 1002.16 1002.16 1002.16 1002.12 1002.12 1002.12 1002.12 1002.16 1002.24 1002.28 1002.32 1002.36 1002.44 1002.52 1002.56 1002.60 1002.68 1002.72 1002.64 1002.60 1002.52 1002.44 1002.40 1002.28 1002.20 1002.20 1002.20 1002.16 1002.16 1002.20 1002.16 1002.12 1002.12 1002.16 1002.28 1002.36 1002.44 1002.48
1008.40 1008.20 1008.00 1007.80 1007.56 1007.32 1007.12 1006.88 1006.60 1006.36 1006.16 1005.92 1005.72 1005.44 1005.16 1004.88 1004.60 1004.28 1004.00 1003.72 1003.52 1003.32 1003.16 1002.96 1002.76 1002.60 1002.40 1002.24 1002.16 1002.08 1002.00 1001.96 1001.92 1001.92 1001.88 1001.84 1001.80 1001.84 1001.88 1001.96 1002.00 1002.04 1002.12 1002.16 1002.28 1002.28 1002.36 1002.44 1002.44 1002.44 1002.40 1002.32 1002.28 1002.20 1002.12 1002.04 1002.00 1001.92 1001.88 1001.88 1001.88 1001.88 1001.88 1001.88 1001.92 1002.00 1002.12 1002.20 1002.28
1008.08 1007.88 1007.72 1007.52 1007.32 1007.08 1006.88 1006.60 1006.40 1006.16 1005.96 1005.72 1005.44 1005.16 1004.88 1004.64 1004.40 1004.12 1003.84 1003.56 1003.32 1003.08 1002.96 1002.80 1002.60 1002.44 1002.28 1002.16 1002.00 1001.92 1001.84 1001.80 1001.76 1001.72 1001.60 1001.60 1001.56 1001.60 1001.60 1001.64 1001.68 1001.72 1001.84 1001.88 1001.96 1002.04 1002.16 1002.24 1002.24 1002.24 1002.20 1002.16 1002.12 1002.04 1002.00 1001.92 1001.84 1001.72 1001.64 1001.60 1001.56 1001.60 1001.64 1001.68 1001.72 1001.76 1001.88 1002.00 1002.12
1007.80 1007.60 1007.40 1007.20 1007.00 1006.80 1006.56 1006.36 1006.12 1005.88 1005.68 1005.44 1005.16 1004.84 1004.60 1004.40 1004.16 1003.92 1003.68 1003.44 1003.20 1003.00 1002.80 1002.64 1002.44 1002.28 1002.08 1002.00 1001.84 1001.72 1001.60 1001.56 1001.44 1001.44 1001.36 1001.32 1001.32 1001.32 1001.32 1001.36 1001.40 1001.44 1001.52 1001.60 1001.72 1001.80 1001.88 1002.00 1002.00 1001.96 1001.92 1001.92 1001.88 1001.84 1001.80 1001.80 1001.72 1001.60 1001.48 1001.40 1001.32 1001.32 1001.32 1001.40 1001.44 1001.52 1001.64 1001.76 1001.88
1007.56 1007.32 1007.16 1006.92 1006.72 1006.48 1006.24 1006.00 1005.84 1005.60 1005.32 1005.04 1004.76 1004.48 1004.28 1004.08 1003.88 1003.64 1003.44 1003.28 1003.00 1002.80 1002.60 1002.44 1002.24 1002.04 1001.88 1001.76 1001.60 1001.44 1001.32 1001.24 1001.16 1001.08 1001.04 1001.00 1001.00 1001.00 1001.00 1001.00 1001.08 1001.16 1001.16 1001.28 1001.40 1001.48 1001.60 1001.72 1001.72 1001.68 1001.68 1001.68 1001.64 1001.60 1001.60 1001.60 1001.56 1001.48 1001.36 1001.28 1001.20 1001.16 1001.16 1001.16 1001.16 1001.24 1001.36 1001.52 1001.68
1007.20 1007.00 1006.84 1006.60 1006.40 1006.16 1005.92 1005.72 1005.52 1005.28 1005.00 1004.72 1004.44 1004.20 1004.00 1003.84 1003.60 1003.44 1003.24 1003.00 1002.80 1002.60 1002.44 1002.24 1002.00 1001.88 1001.72 1001.56 1001.36 1001.20 1001.08 1000.96 1000.84 1000.76 1000.72 1000.68 1000.64 1000.64 1000.64 1000.72 1000.76 1000.80 1000.88 1000.96 1001.04 1001.16 1001.32 1001.40 1001.40 1001.40 1001.40 1001.44 1001.40 1001.40 1001.36 1001.40 1001.44 1001.36 1001.28 1001.16 1001.08 1001.04 1001.00 1001.00 1000.96 1000.96 1001.08 1001.28 1001.44
1006.92 1006.72 1006.48 1006.28 1006.04 1005.84 1005.60 1005.36 1005.16 1004.92 1004.64 1004.32 1004.08 1003.92 1003.72 1003.52 1003.36 1003.20 1003.00 1002.76 1002.60 1002.40 1002.20 1001.96 1001.80 1001.64 1001.48 1001.32 1001.12 1000.92 1000.76 1000.68 1000.60 1000.44 1000.40 1000.32 1000.28 1000.28 1000.28 1000.32 1000.40 1000.44 1000.52 1000.60 1000.72 1000.88 1001.00 1001.04 1001.04 1001.04 1001.08 1001.12 1001.16 1001.16 1001.20 1001.24 1001.24 1001.24 1001.16 1001.08 1001.00 1000.92 1000.88 1000.88 1000.84 1000.76 1000.80 1000.96 1001.16
1006.64 1006.44 1006.20 1005.96 1005.72 1005.48 1005.28 1005.04 1004.76 1004.52 1004.24 1004.00 1003.72 1003.56 1003.40 1003.20 1003.00 1002.84 1002.68 1002.48 1002.28 1002.04 1001.80 1001.64 1001.56 1001.36 1001.16 1001.00 1000.76 1000.60 1000.48 1000.40 1000.28 1000.16 1000.04 1000.00 999.96 999.92 999.92 1000.00 1000.00 1000.04 1000.16 1000.28 1000.40 1000.56 1000.68 1000.72 1000.72 1000.72 1000.76 1000.84 1000.92 1001.00 1001.00 1001.04 1001.08 1001.04 1001.00 1000.96 1000.88 1000.80 1000.72 1000.72 1000.72 1000.64 1000.60 1000.68 1000.88
1006.32 1006.08 1005.88 1005.60 1005.40 1005.16 1004.96 1004.68 1004.40 1004.16 1003.88 1003.64 1003.40 1003.20 1003.00 1002.84 1002.64 1002.48 1002.36 1002.16 1001.92 1001.64 1001.44 1001.32 1001.20 1001.04 1000.84 1000.60 1000.40 1000.24 1000.12 1000.00 999.96 999.88 999.80 999.72 999.64 999.60 999.60 999.60 999.68 999.72 999.76 999.88 1000.00 1000.16 1000.28 1000.32 1000.32 1000.36 1000.44 1000.52 1000.64 1000.72 1000.80 1000.84 1000.88 1000.88 1000.80 1000.76 1000.76 1000.72 1000.64 1000.56 1000.60 1000.56 1000.44 1000.44 1000.60
1006.04 1005.80 1005.56 1005.32 1005.12 1004.88 1004.60 1004.32 1004.08 1003.84 1003.56 1003.32 1003.08 1002.88 1002.72 1002.48 1002.32 1002.16 1002.00 1001.80 1001.52 1001.32 1001.08 1000.96 1000.84 1000.68 1000.44 1000.24 1000.04 999.92 999.80 999.68 999.60 999.52 999.44 999.36 999.32 999.28 999.28 999.28 999.32 999.36 999.44 999.52 999.64 999.80 999.88 999.92 999.96 1000.00 1000.12 1000.20 1000.32 1000.44 1000.52 1000.60 1000.60 1000.64 1000.60 1000.56 1000.52 1000.44 1000.40 1000.36 1000.40 1000.40 1000.32 1000.28 1000.32
1005.76 1005.48 1005.24 1005.00 1004.80 1004.60 1004.28 1004.04 1003.76 1003.52 1003.24 1003.00 1002.76 1002.60 1002.36 1002.16 1002.00 1001.88 1001.72 1001.44 1001.24 1001.00 1000.84 1000.68 1000.52 1000.32 1000.12 999.96 999.80 999.68 999.52 999.36 999.28 999.16 999.00 998.92 998.88 998.88 998.88 998.88 998.88 998.96 999.04 999.16 999.28 999.36 999.44 999.52 999.60 999.68 999.80 999.88 1000.00 1000.12 1000.20 1000.28 1000.36 1000.36 1000.32 1000.28 1000.24 1000.20 1000.16 1000.16 1000.20 1000.24 1000.24 1000.16 1000.16
1005.44 1005.20 1004.96 1004.72 1004.52 1004.28 1004.00 1003.76 1003.48 1003.20 1002.96 1002.72 1002.48 1002.28 1002.08 1001.88 1001.72 1001.60 1001.44 1001.20 1000.96 1000.76 1000.60 1000.44 1000.16 1000.00 999.84 999.72 999.56 999.40 999.24 999.12 998.96 998.80 998.60 998.48 998.44 998.44 998.44 998.44 998.48 998.56 998.64 998.76 998.88 998.96 999.04 999.12 999.24 999.36 999.44 999.56 999.68 999.80 999.92 1000.00 1000.04 1000.08 1000.08 1000.00 999.96 999.96 999.96 999.96 1000.00 1000.04 1000.04 1000.00 1000.00
1005.16 1004.88 1004.68 1004.44 1004.24 1004.00 1003.72 1003.44 1003.20 1002.92 1002.68 1002.44 1002.20 1002.04 1001.88 1001.64 1001.44 1001.32 1001.16 1000.96 1000.72 1000.52 1000.32 1000.12 999.88 999.72 999.56 999.44 999.28 999.16 999.00 998.84 998.60 998.44 998.24 998.04 997.96 997.92 997.92 997.96 998.00 998.08 998.20 998.32 998.44 998.56 998.60 998.72 998.88 999.00 999.16 999.24 999.36 999.48 999.60 999.72 999.76 999.80 999.80 999.76 999.72 999.72 999.72 999.72 999.80 999.80 999.80 999.88 999.88
1004.88 1004.64 1004.44 1004.16 1003.92 1003.68 1003.44 1003.16 1002.92 1002.68 1002.40 1002.16 1001.96 1001.80 1001.60 1001.44 1001.20 1001.00 1000.88 1000.68 1000.44 1000.24 1000.00 999.76 999.60 999.48 999.32 999.12 998.96 998.84 998.68 998.44 998.20 998.00 997.76 997.60 997.44 997.44 997.40 997.44 997.44 997.56 997.72 997.88 998.00 998.12 998.20 998.36 998.48 998.64 998.80 998.92 999.04 999.16 999.28 999.40 999.44 999.48 999.52 999.52 999.52 999.52 999.52 999.56 999.60 999.60 999.60 999.64 999.68
1004.64 1004.36 1004.16 1003.88 1003.68 1003.40 1003.16 1002.88 1002.68 1002.44 1002.16 1001.92 1001.72 1001.48 1001.32 1001.12 1000.88 1000.68 1000.44 1000.28 1000.16 999.92 999.72 999.44 999.32 999.20 999.00 998.80 998.60 998.48 998.32 998.12 997.84 997.60 997.32 997.12 997.00 996.88 996.88 996.88 996.92 997.00 997.20 997.36 997.52 997.68 997.80 998.00 998.16 998.32 998.52 998.64 998.72 998.88 999.00 999.08 999.16 999.24 999.28 999.28 999.28 999.32 999.32 999.32 999.36 999.40 999.40 999.40 999.44
1004.40 1004.16 1003.88 1003.64 1003.40 1003.16 1002.88 1002.64 1002.40 1002.16 1001.88 1001.64 1001.44 1001.16 1000.96 1000.72 1000.52 1000.28 1000.08 999.88 999.76 999.60 999.40 999.16 998.96 998.80 998.64 998.44 998.28 998.08 997.88 997.72 997.44 997.16 996.92 996.72 996.56 996.44 996.40 996.36 996.44 996.56 996.68 996.84 997.00 997.20 997.40 997.60 997.80 998.00 998.20 998.36 998.48 998.60 998.72 998.80 998.88 998.96 999.00 999.04 999.08 999.08 999.08 999.08 999.12 999.16 999.16 999.16 999.20
1004.20 1003.96 1003.72 1003.44 1003.16 1002.88 1002.64 1002.40 1002.12 1001.84 1001.56 1001.32 1001.08 1000.84 1000.60 1000.40 1000.16 999.96 999.72 999.48 999.32 999.24 999.08 998.84 998.60 998.36 998.16 998.00 997.84 997.64 997.44 997.24 997.00 996.76 996.52 996.28 996.16 996.00 995.92 995.92 996.00 996.08 996.24 996.40 996.60 996.80 997.00 997.24 997.44 997.64 997.88 998.04 998.20 998.32 998.44 998.52 998.60 998.68 998.72 998.80 998.84 998.84 998.84 998.84 998.88 998.88 998.88 998.92 998.96
1004.08 1003.84 1003.56 1003.28 1003.00 1002.72 1002.40 1002.12 1001.84 1001.56 1001.28 1001.00 1000.72 1000.48 1000.24 1000.00 999.80 999.60 999.32 999.12 998.92 998.76 998.60 998.40 998.16 997.92 997.68 997.48 997.32 997.08 996.88 996.72 996.56 996.28 996.04 995.88 995.68 995.56 995.44 995.48 995.56 995.64 995.80 996.00 996.20 996.44 996.68 996.92 997.16 997.36 997.56 997.76 997.92 998.04 998.16 998.28 998.36 998.44 998.48 998.56 998.60 998.56 998.56 998.56 998.60 998.60 998.64 998.72 998.72
1003.96 1003.68 1003.40 1003.12 1002.80 1002.48 1002.16 1001.88 1001.60 1001.28 1001.00 1000.68 1000.40 1000.16 999.88 999.60 999.40 999.16 998.92 998.72 998.56 998.32 998.16 997.92 997.68 997.44 997.20 997.00 996.76 996.56 996.36 996.20 996.00 995.76 995.52 995.36 995.16 995.04 995.00 995.00 995.12 995.24 995.44 995.60 995.88 996.08 996.32 996.60 996.84 997.04 997.28 997.48 997.60 997.76 997.88 998.00 998.08 998.16 998.24 998.28 998.28 998.28 998.28 998.28 998.28 998.32 998.36 998.40 998.44
1003.88 1003.60 1003.28 1002.92 1002.60 1002.28 1002.00 1001.68 1001.32 1001.00 1000.68 1000.36 1000.08 999.80 999.56 999.32 999.08 998.88 998.64 998.44 998.20 998.00 997.72 997.48 997.24 996.96 996.72 996.44 996.24 996.04 995.84 995.60 995.40 995.16 995.00 994.84 994.72 994.60 994.60 994.68 994.76 994.88 995.04 995.28 995.48 995.76 996.08 996.32 996.60 996.80 997.00 997.16 997.36 997.48 997.60 997.72 997.80 997.88 997.92 998.00 998.00 998.00 998.00 998.00 998.00 998.00 998.08 998.16 998.20
1003.76 1003.44 1003.12 1002.80 1002.44 1002.12 1001.80 1001.44 1001.08 1000.72 1000.40 1000.12 999.80 999.56 999.32 999.08 998.88 998.64 998.40 998.16 997.88 997.64 997.32 997.04 996.76 996.44 996.16 995.88 995.68 995.44 995.24 995.00 994.80 994.60 994.40 994.28 994.24 994.24 994.28 994.36 994.44 994.60 994.76 994.96 995.16 995.44 995.72 996.00 996.28 996.52 996.72 996.92 997.08 997.20 997.32 997.44 997.52 997.56 997.60 997.68 997.72 997.72 997.68 997.64 997.68 997.72 997.80 997.88 997.92
1003.72 1003.36 1003.00 1002.72 1002.32 1002.00 1001.64 1001.28 1000.88 1000.52 1000.20 999.92 999.64 999.44 999.16 998.96 998.68 998.40 998.16 997.88 997.56 997.28 996.96 996.68 996.36 996.04 995.72 995.44 995.08 994.80 994.56 994.32 994.16 994.00 993.92 993.88 993.88 993.96 994.04 994.16 994.28 994.36 994.52 994.72 994.96 995.20 995.44 995.72 995.96 996.20 996.44 996.68 996.84 996.96 997.00 997.12 997.16 997.20 997.28 997.32 997.32 997.32 997.32 997.32 997.32 997.40 997.48 997.60 997.68
1003.64 1003.32 1002.96 1002.60 1002.24 1001.88 1001.52 1001.16 1000.72 1000.40 1000.08 999.80 999.56 999.32 999.04 998.80 998.52 998.20 997.92 997.60 997.32 996.96 996.68 996.40 996.08 995.72 995.40 995.00 994.52 994.16 993.88 993.68 993.56 993.52 993.56 993.60 993.68 993.76 993.88 994.00 994.12 994.24 994.40 994.60 994.84 995.04 995.28 995.48 995.72 995.96 996.20 996.40 996.60 996.72 996.80 996.80 996.84 996.88 996.88 996.88 996.92 996.92 996.92 996.96 997.00 997.08 997.16 997.28 997.36
1003.56 1003.20 1002.88 1002.52 1002.16 1001.80 1001.40 1001.00 1000.64 1000.28 1000.00 999.72 999.48 999.20 998.96 998.68 998.40 998.08 997.76 997.44 997.12 996.76 996.44 996.16 995.84 995.48 995.08 994.52 994.00 993.60 993.32 993.20 993.16 993.20 993.32 993.40 993.44 993.60 993.72 993.88 994.00 994.16 994.28 994.44 994.72 994.96 995.16 995.32 995.52 995.72 995.96 996.16 996.32 996.44 996.52 996.56 996.52 996.48 996.44 996.44 996.48 996.52 996.60 996.60 996.72 996.84 996.92 997.00 997.12
1003.52 1003.16 1002.84 1002.44 1002.12 1001.72 1001.32 1000.92 1000.60 1000.28 1000.00 999.68 999.44 999.16 998.84 998.60 998.28 998.00 997.68 997.32 997.00 996.68 996.32 996.00 995.72 995.32 994.80 994.20 993.68 993.32 993.12 993.00 993.00 993.04 993.16 993.24 993.36 993.48 993.64 993.80 993.96 994.08 994.24 994.44 994.64 994.88 995.04 995.20 995.36 995.60 995.76 995.92 996.08 996.20 996.28 996.28 996.28 996.20 996.12 996.12 996.12 996.16 996.24 996.32 996.44 996.60 996.68 996.76 996.88
1003.52 1003.16 1002.84 1002.44 1002.08 1001.72 1001.32 1000.88 1000.56 1000.28 999.96 999.64 999.36 999.08 998.80 998.48 998.20 997.92 997.64 997.32 997.00 996.68 996.32 995.96 995.60 995.16 994.68 994.12 993.60 993.20 993.04 992.96 993.00 993.00 993.12 993.24 993.32 993.44 993.60 993.72 993.88 994.04 994.20 994.40 994.60 994.76 994.96 995.12 995.28 995.44 995.60 995.72 995.88 995.96 996.04 996.08 996.04 995.96 995.84 995.80 995.76 995.84 995.92 996.04 996.16 996.28 996.36 996.48 996.60
1003.52 1003.16 1002.84 1002.44 1002.08 1001.72 1001.32 1000.96 1000.60 1000.28 1000.00 999.64 999.32 999.04 998.76 998.44 998.16 997.92 997.64 997.32 997.00 996.72 996.32 995.96 995.56 995.12 994.68 994.16 993.60 993.20 993.00 992.96 993.00 993.00 993.12 993.20 993.32 993.44 993.52 993.68 993.80 993.96 994.16 994.36 994.52 994.72 994.88 995.00 995.12 995.28 995.44 995.60 995.72 995.76 995.84 995.88 995.80 995.72 995.60 995.56 995.44 995.52 995.64 995.80 995.92 996.00 996.12 996.20 996.32
1003.56 1003.20 1002.88 1002.48 1002.12 1001.72 1001.32 1001.00 1000.64 1000.32 1000.00 999.68 999.36 999.04 998.72 998.48 998.20 997.96 997.72 997.40 997.08 996.72 996.32 995.92 995.48 995.04 994.64 994.20 993.76 993.32 993.00 992.92 992.96 993.00 993.12 993.20 993.32 993.44 993.52 993.60 993.72 993.88 994.04 994.28 994.44 994.60 994.72 994.88 995.00 995.16 995.32 995.48 995.60 995.64 995.64 995.64 995.56 995.44 995.32 995.24 995.24 995.32 995.44 995.60 995.68 995.76 995.84 995.96 996.08
1003.60 1003.28 1002.92 1002.56 1002.16 1001.80 1001.44 1001.04 1000.72 1000.36 1000.04 999.72 999.44 999.12 998.88 998.60 998.28 998.04 997.76 997.44 997.08 996.72 996.32 995.88 995.48 995.08 994.72 994.36 994.00 993.60 993.24 993.00 993.00 993.04 993.12 993.20 993.32 993.40 993.48 993.60 993.72 993.84 993.96 994.12 994.28 994.44 994.56 994.72 994.88 995.00 995.20 995.40 995.52 995.56 995.56 995.52 995.40 995.20 995.04 995.00 995.04 995.16 995.28 995.36 995.44 995.52 995.60 995.72 995.80
1003.68 1003.32 1003.00 1002.60 1002.28 1001.88 1001.56 1001.20 1000.84 1000.48 1000.16 999.88 999.56 999.24 998.96 998.72 998.44 998.12 997.80 997.48 997.16 996.80 996.44 996.08 995.72 995.40 995.04 994.72 994.40 994.00 993.60 993.32 993.12 993.08 993.12 993.20 993.32 993.44 993.52 993.60 993.72 993.80 993.88 993.96 994.12 994.28 994.40 994.52 994.64 994.80 995.00 995.20 995.32 995.44 995.44 995.48 995.36 995.16 994.92 994.80 994.88 994.96 995.04 995.12 995.16 995.28 995.40 995.48 995.60
1003.72 1003.40 1003.04 1002.72 1002.40 1002.04 1001.68 1001.32 1001.00 1000.64 1000.32 1000.00 999.68 999.40 999.12 998.84 998.52 998.24 997.92 997.60 997.32 997.00 996.72 996.44 996.16 995.88 995.56 995.24 994.88 994.52 994.12 993.80 993.48 993.24 993.12 993.16 993.24 993.36 993.48 993.60 993.64 993.68 993.72 993.84 993.92 994.04 994.16 994.28 994.44 994.56 994.72 994.96 995.16 995.32 995.36 995.40 995.32 995.08 994.84 994.68 994.68 994.72 994.80 994.88 994.96 995.00 995.16 995.32 995.44
1003.88 1003.52 1003.16 1002.88 1002.56 1002.20 1001.88 1001.52 1001.16 1000.84 1000.48 1000.16 999.88 999.56 999.28 999.00 998.72 998.44 998.16 997.88 997.60 997.28 997.00 996.72 996.44 996.16 995.88 995.60 995.32 994.96 994.60 994.24 993.92 993.64 993.44 993.32 993.28 993.36 993.44 993.56 993.60 993.64 993.72 993.76 993.76 993.80 993.88 994.00 994.16 994.28 994.48 994.72 995.00 995.12 995.20 995.28 995.16 995.00 994.76 994.60 994.60 994.56 994.56 994.64 994.72 994.84 994.92 995.12 995.24
1004.00 1003.68 1003.36 1003.00 1002.72 1002.36 1002.00 1001.72 1001.36 1001.00 1000.68 1000.36 1000.04 999.72 999.44 999.16 998.88 998.60 998.40 998.12 997.80 997.52 997.24 996.96 996.64 996.40 996.16 995.88 995.60 995.32 995.00 994.72 994.40 994.16 993.92 993.76 993.68 993.64 993.68 993.72 993.72 993.72 993.72 993.68 993.60 993.56 993.60 993.72 993.84 994.00 994.24 994.52 994.72 994.84 994.92 995.00 995.00 994.92 994.80 994.68 994.68 994.64 994.60 994.72 994.76 994.84 994.92 995.00 995.12
1004.16 1003.84 1003.48 1003.16 1002.84 1002.52 1002.16 1001.88 1001.60 1001.24 1000.88 1000.60 1000.28 999.96 999.64 999.32 999.08 998.84 998.60 998.32 998.04 997.76 997.48 997.24 996.92 996.64 996.44 996.24 996.00 995.76 995.48 995.20 994.88 994.60 994.40 994.24 994.12 994.00 993.96 993.88 993.84 993.80 993.72 993.52 993.32 993.24 993.24 993.32 993.44 993.64 993.96 994.24 994.40 994.52 994.68 994.84 994.96 994.96 994.96 994.92 994.96 995.00 995.04 995.04 995.12 995.16 995.20 995.24 995.28
1004.28 1003.96 1003.64 1003.32 1003.00 1002.68 1002.36 1002.04 1001.76 1001.44 1001.12 1000.84 1000.48 1000.16 999.84 999.52 999.28 999.00 998.76 998.56 998.28 998.04 997.80 997.48 997.24 997.00 996.80 996.60 996.44 996.16 995.88 995.64 995.36 995.08 994.88 994.68 994.52 994.36 994.24 994.08 994.00 993.88 993.68 993.36 993.08 992.92 992.88 992.92 993.08 993.32 993.64 993.88 994.04 994.24 994.48 994.72 994.92 995.00 995.00 995.04 995.16 995.24 995.28 995.32 995.40 995.48 995.60 995.64 995.72
1004.40 1004.08 1003.76 1003.44 1003.16 1002.88 1002.56 1002.24 1002.00 1001.68 1001.36 1001.04 1000.68 1000.32 1000.00 999.72 999.48 999.24 999.00 998.76 998.56 998.28 998.04 997.76 997.56 997.36 997.16 996.96 996.76 996.52 996.28 996.00 995.76 995.52 995.32 995.12 995.00 994.80 994.60 994.44 994.28 994.04 993.76 993.44 993.16 992.88 992.80 992.84 993.00 993.16 993.40 993.60 993.84 994.12 994.40 994.64 994.88 995.00 995.08 995.16 995.28 995.36 995.48 995.60 995.64 995.76 995.88 996.00 996.00
1004.56 1004.24 1003.96 1003.64 1003.36 1003.08 1002.76 1002.44 1002.16 1001.88 1001.56 1001.24 1000.88 1000.56 1000.24 1000.00 999.76 999.52 999.24 999.00 998.72 998.52 998.28 998.00 997.88 997.68 997.48 997.28 997.08 996.88 996.64 996.40 996.16 995.92 995.72 995.60 995.40 995.16 994.88 994.72 994.52 994.28 994.04 993.72 993.48 993.28 993.16 993.12 993.16 993.24 993.36 993.52 993.80 994.08 994.32 994.56 994.76 994.96 995.12 995.28 995.40 995.56 995.72 995.88 995.92 996.00 996.16 996.28 996.32
1004.76 1004.44 1004.16 1003.84 1003.56 1003.28 1003.00 1002.68 1002.36 1002.04 1001.72 1001.44 1001.12 1000.84 1000.56 1000.28 1000.00 999.76 999.48 999.20 998.96 998.72 998.48 998.28 998.12 997.92 997.72 997.52 997.36 997.20 997.00 996.72 996.52 996.32 996.16 995.92 995.72 995.44 995.20 995.00 994.88 994.68 994.44 994.24 994.00 993.80 993.64 993.60 993.52 993.48 993.48 993.60 993.88 994.08 994.24 994.44 994.72 995.00 995.28 995.44 995.60 995.72 995.92 996.12 996.24 996.36 996.48 996.60 996.68
Wind_Speed
11 11 10 10 9 9 9 9 9 9 9 9 10 10 10 10 11 10 10 10 9 8 8 8 8 8 8 7 8 9 9 9 9 10 10 10 10 11 11 10 10 10 10 9 9 9 9 9 9 8 8 7 8 8 8 8 9 10 10 10 9 9 10 11 11 11 11 11 8
13 13 12 11 11 10 10 10 9 9 9 9 9 10 10 10 10 10 10 11 9 9 9 9 10 10 10 9 9 9 9 9 9 9 10 10 11 11 10 10 10 10 10 10 9 8 8 8 8 8 7 7 8 8 8 8 9 10 11 12 10 9 8 9 10 10 11 10 9
13 13 12 12 12 11 10 10 10 10 11 10 10 10 10 10 9 9 10 10 10 10 10 9 10 11 11 10 9 9 9 9 9 10 10 10 10 10 10 10 10 10 10 10 10 9 8 8 8 7 7 7 8 8 8 9 9 10 11 13 10 9 8 8 8 9 8 8 9
13 13 13 13 14 14 13 11 11 12 12 11 11 11 11 10 10 10 10 11 11 11 11 11 11 11 11 11 10 10 9 9 10 10 10 10 10 11 11 10 11 11 11 10 10 10 9 9 7 7 7 8 8 8 8 8 9 9 10 11 10 9 9 8 7 7 7 7 8
13 13 13 12 14 14 13 13 13 13 12 11 10 10 10 10 10 10 10 10 10 10 11 12 12 12 12 12 12 11 11 10 10 10 10 11 11 11 11 11 11 11 10 10 10 10 10 10 8 7 7 7 7 7 8 9 9 9 8 8 9 9 9 8 7 6 6 6 6
13 13 13 13 15 15 14 13 15 14 13 11 12 12 12 10 10 10 11 10 11 12 13 13 13 13 13 13 13 13 12 12 11 11 11 11 11 11 12 12 12 11 10 10 11 11 10 10 8 8 8 8 8 8 9 10 9 8 8 8 8 9 9 9 7 7 6 7 7
14 14 15 15 15 15 15 15 15 14 14 13 14 15 15 13 13 14 14 13 12 12 12 12 12 12 13 13 13 14 14 13 12 12 12 12 12 12 12 12 12 12 12 11 11 10 10 9 8 8 8 7 8 9 10 10 9 8 8 7 7 7 8 10 8 7 8 10 10
15 15 15 16 16 16 17 17 16 15 14 12 14 15 17 16 16 16 16 14 13 13 12 12 14 14 15 14 14 14 14 14 14 14 13 13 13 13 13 13 13 13 13 12 12 11 10 9 8 8 8 7 7 8 9 11 11 10 9 8 7 7 7 8 8 8 9 11 11
14 15 15 16 16 16 17 17 17 16 15 15 16 17 17 17 17 17 16 14 14 13 14 14 15 16 16 16 16 16 15 15 15 14 14 14 14 14 14 13 13 13 13 12 12 12 11 9 9 9 8 8 8 8 9 10 11 12 11 9 7 7 8 9 9 10 10 11 12
15 15 15 15 16 16 17 17 17 17 18 18 18 18 18 17 17 16 15 13 13 14 15 15 16 17 17 17 17 16 15 14 14 15 15 15 15 15 15 14 14 13 13 12 11 12 12 11 10 10 10 9 9 10 9 10 11 12 12 10 9 9 9 10 11 11 12 11 12
17 16 16 15 16 16 16 16 16 16 16 16 17 17 17 16 16 15 15 14 14 15 16 16 17 17 17 16 16 16 16 15 14 15 15 15 16 16 16 15 15 14 14 13 11 11 11 11 11 12 12 11 11 11 11 11 12 12 13 12 11 11 11 10 11 12 12 12 13
17 17 16 16 16 16 16 16 15 14 15 16 16 16 16 15 16 15 15 15 16 17 17 16 17 17 17 16 16 15 15 15 16 16 16 17 17 17 17 17 17 16 16 15 13 11 11 11 12 13 14 13 11 10 11 12 13 13 14 14 14 13 12 11 11 11 11 13 14
17 16 16 16 16 16 16 16 14 14 14 15 15 15 14 14 15 15 15 16 16 16 15 15 15 16 16 16 16 15 15 15 16 16 16 17 18 18 18 18 18 17 17 16 14 13 12 13 14 14 15 14 12 11 12 13 14 14 15 15 15 14 13 12 11 11 11 13 14
17 16 16 16 16 16 15 15 13 13 13 15 15 14 13 13 13 13 14 15 15 15 14 14 14 14 14 15 16 16 16 16 16 17 17 18 18 18 18 18 18 18 17 15 15 15 15 14 15 15 15 15 14 14 14 14 14 15 15 15 16 15 14 13 12 11 12 13 14
16 16 16 16 16 15 14 14 12 12 13 14 13 13 12 12 12 12 13 14 15 15 14 14 13 13 14 16 16 17 17 17 17 18 18 18 19 19 19 18 19 18 17 16 16 16 16 16 16 16 15 16 15 15 15 15 15 15 15 15 15 14 14 13 12 11 11 13 14
16 16 16 15 15 15 14 13 11 11 12 12 12 12 12 11 11 12 13 14 14 13 13 14 14 14 14 15 16 17 17 18 18 19 19 19 19 19 19 20 19 19 18 18 17 17 17 17 16 16 16 16 16 15 15 15 16 16 15 15 14 13 13 13 12 12 12 12 13
16 15 15 15 15 15 14 13 12 11 12 13 13 13 13 12 12 12 13 14 13 13 14 15 14 13 13 14 15 15 16 17 18 18 18 18 19 19 20 20 20 20 19 19 18 18 17 17 16 16 16 16 16 15 15 16 15 15 15 15 13 13 12 12 12 12 12 12 12
15 15 15 15 15 15 15 15 14 13 14 14 14 14 13 13 13 13 13 14 14 15 16 17 15 15 15 16 15 15 14 16 17 18 18 18 19 19 20 20 20 20 19 19 19 18 18 17 17 16 16 15 15 15 15 15 15 15 15 15 14 13 13 12 12 12 12 11 12
15 15 15 15 15 15 15 15 15 15 15 15 15 14 14 15 15 15 15 15 15 16 17 17 16 16 16 17 17 16 15 16 18 19 19 19 19 19 19 20 20 20 20 19 19 19 18 17 17 16 16 15 15 15 14 15 14 14 15 15 14 14 13 13 13 12 12 12 11
14 14 14 14 15 15 15 15 15 15 15 15 15 15 16 16 16 16 16 16 16 16 17 17 17 17 17 18 18 18 17 16 18 19 20 20 19 19 19 19 19 19 19 19 18 18 18 17 17 16 16 16 15 15 15 14 14 14 15 14 14 14 14 14 14 13 13 12 12
14 14 15 15 15 15 15 15 15 16 16 16 16 16 16 16 16 16 17 17 16 16 17 18 18 19 19 19 20 20 19 17 18 19 20 20 19 19 18 18 18 18 18 18 17 17 17 17 16 16 16 16 16 15 15 14 14 15 15 14 14 15 15 14 14 14 14 13 13
15 14 15 15 15 15 15 15 16 16 16 16 16 16 16 16 15 15 16 16 16 16 17 18 18 19 20 20 20 20 19 17 18 19 19 18 18 17 17 16 16 17 17 17 17 17 17 17 16 16 16 15 16 16 15 14 14 15 15 16 16 16 16 15 15 14 14 14 14
15 15 15 14 15 15 15 16 16 16 16 16 15 15 15 14 14 14 15 15 15 16 17 17 17 18 19 20 20 20 20 19 19 19 19 18 17 16 15 13 15 16 16 16 16 16 16 16 16 16 16 15 16 16 16 15 15 15 16 17 17 17 16 15 15 14 14 14 14
16 15 14 13 14 15 16 16 16 16 15 15 14 14 14 14 14 14 15 15 15 16 16 15 15 17 18 19 20 20 21 21 21 20 19 17 16 14 13 12 13 14 14 14 14 15 15 13 14 14 14 14 14 15 15 16 16 16 16 17 18 17 17 16 15 15 15 15 14
16 15 15 14 15 15 15 15 15 15 14 14 13 13 13 14 14 14 14 14 15 15 15 16 16 16 16 17 19 20 20 21 20 19 17 15 13 12 11 10 10 11 11 11 14 16 16 13 13 12 12 13 13 14 14 15 16 16 17 17 17 17 16 15 15 15 16 16 15
15 15 15 15 15 16 16 16 15 15 14 13 13 13 13 13 13 13 13 14 14 14 14 14 14 14 15 16 17 18 18 17 16 15 13 11 11 10 9 9 9 9 9 11 14 17 17 16 15 13 12 12 12 13 13 14 16 16 17 17 17 16 15 14 15 16 16 15 15
15 15 15 15 16 16 16 15 15 14 13 13 13 13 12 12 11 12 12 13 13 14 13 13 13 13 14 15 16 15 14 11 11 11 10 10 10 10 9 8 8 7 8 11 14 17 18 18 17 15 14 12 12 12 12 12 14 15 15 16 16 15 15 15 15 15 15 15 15
14 15 15 15 16 16 16 15 14 14 13 13 13 12 12 12 12 12 12 12 13 13 12 11 11 11 11 11 11 10 9 8 8 8 8 9 9 9 9 8 7 7 8 11 14 16 17 18 18 17 16 13 12 12 12 12 13 12 12 13 14 15 15 14 14 14 14 15 14
15 15 15 16 16 16 15 15 14 14 13 13 13 12 12 12 12 12 12 12 13 12 11 10 9 9 9 10 9 7 7 7 7 6 7 7 8 9 9 8 8 8 9 11 13 15 17 18 18 18 17 15 12 10 10 11 11 11 10 11 12 12 13 13 12 12 13 13 13
15 15 15 16 16 15 15 15 14 14 13 12 12 12 12 12 12 12 12 12 12 12 11 10 9 9 10 12 10 6 5 6 6 6 6 7 7 8 9 9 8 8 9 12 13 15 16 17 18 18 18 17 13 11 10 10 10 10 10 10 10 11 13 13 13 13 12 12 12
15 15 15 15 15 15 15 15 15 14 14 12 13 13 12 12 12 12 12 12 12 11 11 11 12 12 13 13 12 8 4 5 6 6 6 7 7 8 9 9 9 9 9 12 14 15 17 17 18 18 18 17 13 11 10 11 11 10 10 9 10 11 12 12 12 13 13 13 12
15 15 15 15 15 15 15 15 15 15 14 14 13 13 12 12 12 12 11 11 11 12 12 13 14 14 14 14 14 12 8 2 4 6 7 7 7 8 8 8 9 8 9 11 13 15 17 18 19 19 19 18 14 12 12 12 12 11 10 10 11 12 12 11 11 12 13 13 13
15 15 15 15 15 15 15 15 15 15 14 14 13 13 13 12 12 12 11 11 11 12 12 13 14 14 14 14 14 14 12 8 3 3 6 8 8 8 8 8 7 8 9 12 13 14 16 18 20 21 21 21 16 14 14 14 12 10 9 10 11 13 13 13 12 12 13 13 12
15 15 15 15 15 15 15 15 15 14 14 14 13 13 13 12 12 12 12 11 11 11 11 11 12 12 12 13 13 13 12 11 9 5 2 6 8 9 9 8 7 7 9 12 14 15 15 17 19 21 22 22 17 14 14 16 14 12 10 10 12 13 14 13 13 13 13 13 12
15 15 15 14 14 14 14 15 14 14 14 14 13 13 13 12 12 12 12 12 11 10 10 10 10 11 11 11 12 12 13 12 12 11 8 4 1 4 5 5 4 4 5 9 12 14 16 17 18 21 22 20 15 14 15 17 16 13 11 11 11 12 13 13 12 12 13 13 13
15 15 14 14 14 14 14 14 14 14 14 14 13 13 13 12 12 12 11 11 10 10 10 10 10 11 12 12 12 12 13 13 13 13 13 12 9 7 5 3 3 3 4 6 9 13 16 18 19 20 21 18 14 13 13 14 12 8 5 5 5 5 6 7 7 7 9 10 11
14 14 14 14 14 14 14 14 14 14 14 14 13 13 13 12 12 11 11 10 10 10 10 10 11 12 12 13 12 13 13 13 13 13 13 13 12 11 9 8 8 7 7 7 6 11 16 19 20 20 19 15 13 11 10 8 5 3 3 5 5 5 5 5 5 4 4 5 5
14 14 14 14 14 14 14 14 14 14 14 13 13 12 12 12 11 11 11 10 10 10 10 10 11 12 12 12 12 13 13 14 14 14 14 14 13 12 11 11 10 10 10 11 5 5 13 18 19 18 17 12 10 8 7 5 5 5 5 6 6 7 7 6 6 6 7 7 7
14 14 14 14 14 14 14 14 14 14 13 13 13 12 12 12 11 11 11 10 10 9 10 10 11 11 11 11 11 12 13 14 15 15 14 14 14 13 13 12 12 13 14 16 12 6 4 11 13 14 13 9 8 7 7 7 6 6 6 6 7 7 7 7 6 6 7 9 11
14 14 14 14 13 13 13 14 13 13 12 12 13 12 12 12 11 11 11 10 10 9 9 10 11 11 10 10 11 12 13 15 15 16 15 15 15 15 15 14 14 15 16 19 18 15 11 10 11 12 11 9 9 8 7 7 8 7 7 6 7 7 7 7 7 7 7 8 10
14 14 14 13 13 13 13 13 13 13 12 12 12 12 11 11 11 11 11 10 10 10 9 9 11 11 11 10 10 12 13 15 16 16 16 16 16 16 16 15 16 16 18 20 21 20 17 15 12 11 10 9 8 7 7 7 8 9 8 7 7 7 7 7 7 7 8 8 8
Wind_Direction
287 285 284 282 281 281 279 278 276 275 275 276 275 275 274 274 274 273 273 272 272 272 271 270 267 264 260 252 246 242 240 237 234 232 230 229 230 229 228 228 228 227 227 226 223 221 220 219 222 225 229 231 232 233 234 234 234 235 235 234 233 229 225 222 219 215 211 210 210
288 285 283 281 279 277 276 275 272 271 270 270 270 269 268 267 267 267 267 267 267 267 267 267 265 264 262 257 251 246 243 242 239 236 234 233 232 231 229 228 227 226 226 226 224 223 222 220 222 225 229 230 230 231 231 230 231 233 235 234 233 229 224 222 219 216 212 210 209
287 284 282 279 276 275 274 273 272 272 271 271 271 271 270 269 267 267 267 267 267 268 268 267 266 265 263 261 256 251 246 244 242 240 239 237 235 232 230 228 227 226 225 225 225 225 226 224 225 227 231 233 233 233 232 230 228 230 233 233 232 228 224 221 217 215 213 213 210
284 282 280 278 276 274 274 274 274 274 274 274 273 272 271 270 269 268 268 268 267 266 266 267 268 268 266 264 260 257 252 248 245 244 243 241 238 235 232 230 229 228 227 225 225 226 226 226 228 231 234 236 238 239 238 234 228 228 229 230 230 228 225 222 216 212 211 213 212
284 282 280 278 277 276 275 274 275 275 275 274 273 272 270 270 269 269 267 265 262 261 262 265 267 268 268 268 267 265 261 257 252 249 247 244 241 238 235 232 231 230 228 225 224 224 224 224 228 232 234 236 238 240 242 242 237 232 227 225 225 225 224 222 215 210 207 209 209
285 283 280 279 278 277 276 275 274 275 274 273 271 270 270 270 270 271 271 270 270 269 269 268 268 268 268 268 266 265 263 261 257 253 250 248 245 242 239 237 234 231 228 225 223 222 222 221 226 231 233 234 237 239 241 243 244 241 234 226 222 221 221 220 215 208 204 204 205
285 284 282 280 278 277 276 275 274 273 272 270 269 268 268 268 268 269 270 271 272 272 272 270 268 266 265 263 262 260 259 257 255 252 250 249 247 244 240 238 235 233 230 227 224 222 220 218 224 229 232 232 235 237 238 239 244 246 243 236 229 222 218 216 212 206 202 202 202
284 282 281 279 278 276 275 275 273 272 271 268 267 268 268 269 269 269 269 270 270 269 270 269 267 265 264 262 260 259 257 255 254 251 249 248 247 245 242 239 237 234 232 228 225 222 220 218 223 227 229 230 232 234 235 236 241 246 248 246 241 233 225 218 208 202 199 199 199
283 282 280 279 277 276 275 274 273 271 270 268 268 268 269 269 270 270 270 269 269 269 269 268 267 265 264 261 260 258 257 255 254 252 250 247 246 244 242 240 238 235 232 228 225 222 220 219 223 226 227 227 229 231 232 232 238 243 247 251 247 241 234 228 214 203 196 194 198
282 282 280 279 277 276 275 274 272 270 269 268 268 268 267 267 267 267 266 266 266 265 264 263 264 263 262 260 258 257 256 255 254 252 250 248 245 244 242 241 238 236 233 228 224 221 220 221 224 225 224 224 227 229 231 231 235 239 243 247 248 245 241 235 224 210 198 193 198
282 281 280 279 278 277 275 274 272 270 269 268 268 267 266 265 264 263 263 263 263 261 260 260 260 260 259 258 257 256 254 253 252 251 250 248 245 243 242 240 238 236 233 229 224 221 221 223 225 224 223 223 224 226 229 230 233 236 238 242 244 245 242 237 229 218 206 197 200
282 281 280 278 277 277 275 274 272 271 270 269 268 267 266 265 263 262 262 261 260 259 259 259 258 257 257 257 256 255 253 251 249 248 247 246 244 242 241 239 237 235 233 230 225 223 223 223 223 223 223 221 221 223 225 228 231 234 236 238 240 241 240 237 231 224 213 201 202
282 281 280 278 278 277 275 274 273 271 270 269 268 267 265 264 262 261 260 259 259 260 261 260 258 258 258 258 258 257 255 251 247 244 242 241 240 239 238 237 235 234 232 230 226 223 222 223 222 222 221 220 219 220 222 224 228 231 233 234 235 236 236 235 232 228 220 209 205
281 281 280 279 278 277 276 274 273 271 270 269 268 267 266 265 263 262 262 262 262 263 264 264 261 259 259 258 259 258 257 255 250 245 241 238 237 235 234 233 232 230 229 228 225 223 221 221 221 220 219 219 219 219 220 222 225 228 230 231 231 232 232 232 231 229 225 217 209
282 281 281 280 279 278 276 274 272 271 270 269 269 268 268 268 266 265 264 264 265 265 264 264 262 261 260 259 259 259 258 257 254 249 244 239 235 233 231 230 229 227 226 225 223 221 220 220 219 218 217 217 217 217 218 219 223 226 228 230 229 229 229 230 229 228 227 224 215
284 283 283 282 280 278 276 274 273 271 271 271 271 271 271 270 269 267 265 264 265 264 263 262 262 262 262 260 259 258 258 257 255 252 247 242 236 232 229 227 226 225 223 223 222 220 219 218 217 216 215 215 215 215 216 218 221 224 227 230 229 228 227 227 227 226 226 225 221
287 286 284 283 281 279 278 276 275 274 273 273 273 272 271 270 269 266 264 263 264 264 264 263 263 263 263 261 259 258 257 256 255 252 249 245 239 234 229 226 224 222 221 220 219 219 218 216 215 215 214 214 214 213 214 215 219 222 225 229 229 228 226 225 226 225 224 223 223
289 288 287 285 283 281 280 279 278 276 275 275 274 272 270 269 268 266 265 263 263 264 264 265 264 263 262 261 259 257 256 255 255 254 252 248 243 237 231 226 222 220 218 217 217 216 215 213 212 212 212 212 212 213 213 214 217 220 224 227 229 229 227 225 224 224 223 220 221
292 291 290 289 287 285 283 282 280 278 276 275 273 272 270 269 268 267 266 265 263 263 264 265 264 263 260 259 258 256 255 254 254 254 253 251 247 241 235 228 222 218 215 214 214 213 212 210 209 208 209 210 211 211 212 213 216 219 223 226 229 229 227 224 223 223 222 219 218
296 296 295 293 291 289 286 284 282 280 278 276 274 272 270 269 268 267 267 266 264 264 263 264 263 262 261 259 257 256 254 252 252 252 251 249 246 242 237 230 222 217 213 211 210 209 208 206 205 205 206 207 209 210 211 212 215 218 222 226 228 228 226 223 222 222 221 219 216
301 300 298 296 294 291 289 286 284 282 280 277 275 273 271 270 268 267 266 266 266 265 264 262 262 261 261 259 257 255 254 252 250 249 249 247 245 241 236 229 221 214 210 208 206 205 203 202 201 202 203 205 207 208 209 211 214 217 221 224 227 227 226 222 220 219 219 219 216
305 303 300 298 296 294 291 289 287 284 282 279 276 274 273 271 270 269 269 270 269 267 265 263 262 261 260 259 257 255 254 252 249 248 247 245 243 239 235 226 216 210 206 204 202 201 200 199 199 199 200 203 205 207 208 210 213 216 220 223 226 227 225 221 218 216 216 216 215
307 305 303 300 298 296 294 292 289 287 284 282 280 279 279 278 278 277 276 275 272 269 266 264 262 260 259 257 256 254 253 251 249 247 245 242 240 236 230 220 211 205 202 200 198 197 196 196 196 197 199 202 204 206 208 210 212 215 218 221 224 225 223 219 215 214 214 215 215
308 306 305 302 301 300 297 295 293 290 288 287 288 288 288 287 286 283 280 277 273 270 267 265 264 262 261 259 256 253 251 249 247 245 241 237 233 228 221 211 205 201 199 197 195 193 192 192 194 196 198 201 203 206 208 210 212 214 217 219 221 222 220 216 212 211 212 213 213
309 308 306 305 305 303 301 299 297 295 294 295 296 296 294 291 289 286 283 280 277 275 273 272 271 270 268 264 259 254 249 246 243 239 234 227 221 214 208 202 200 198 197 195 191 189 188 188 190 192 196 199 202 206 209 211 213 214 216 217 218 218 216 213 210 210 211 212 211
311 310 310 310 308 307 305 302 300 300 300 302 301 299 297 294 291 289 288 287 286 286 285 284 282 279 274 269 262 255 248 242 236 229 221 212 205 200 196 195 195 195 194 191 188 186 186 186 187 189 192 197 201 205 209 213 214 215 216 215 215 214 212 210 209 210 210 210 208
314 314 314 313 312 310 308 306 305 306 307 307 306 304 302 300 298 297 298 297 298 298 296 294 290 285 279 273 265 256 246 234 223 213 205 197 191 189 188 190 191 192 190 186 184 184 185 186 187 188 190 195 200 204 209 214 218 218 217 214 211 209 208 208 209 209 208 207 205
318 317 317 317 315 314 312 310 311 312 313 312 311 310 309 308 308 308 309 309 308 307 304 300 295 290 285 281 270 255 238 219 208 199 193 188 185 185 185 186 188 188 185 182 182 184 186 188 189 190 191 194 199 205 210 216 221 223 220 214 209 206 205 206 208 207 206 203 201
322 321 320 320 319 318 317 316 318 318 318 317 316 316 317 318 319 320 319 318 316 313 309 305 299 298 300 304 290 264 232 209 199 192 187 184 184 185 186 186 187 186 183 181 183 186 189 191 193 194 194 195 199 203 209 216 222 225 222 215 207 203 202 205 206 204 202 200 196
326 325 323 323 322 321 321 322 322 322 322 321 322 323 325 326 328 328 326 323 320 316 313 310 309 315 320 324 316 292 239 208 197 191 188 187 189 189 190 189 189 187 185 184 188 191 194 196 198 199 199 199 201 205 210 217 223 224 221 213 205 202 201 203 201 199 197 195 192
328 327 326 325 325 325 326 326 326 326 327 327 328 329 331 333 334 332 330 326 323 321 320 322 326 331 335 337 334 324 285 211 198 192 192 193 195 196 196 195 195 192 190 188 192 195 198 201 202 203 204 203 204 208 214 221 226 226 220 211 204 201 200 200 197 195 193 190 187
331 330 329 328 329 329 329 329 329 330 331 332 333 335 336 337 336 335 332 330 329 331 334 337 341 343 345 346 345 344 339 288 208 198 196 197 198 200 200 201 202 202 201 197 198 200 201 203 205 206 207 206 207 211 217 226 233 232 224 211 205 201 199 197 194 191 188 185 182
333 332 332 331 332 332 332 333 333 333 334 336 338 339 339 339 338 338 338 338 338 340 343 346 349 350 350 350 351 353 355 352 325 222 202 199 199 201 203 206 208 211 212 212 212 209 207 206 207 207 207 205 207 211 218 226 235 236 228 212 205 202 199 196 191 187 184 181 178
336 335 334 334 334 335 335 335 335 336 337 339 340 342 342 342 343 343 344 343 342 344 347 350 353 353 353 353 355 357 0 2 359 350 257 202 200 201 204 207 211 215 217 220 223 221 218 213 210 208 206 203 204 208 215 223 232 237 232 216 206 201 197 193 187 184 181 179 177
337 337 336 336 336 337 337 338 338 339 340 342 343 344 345 346 347 348 347 344 343 345 349 354 357 359 360 360 1 4 6 9 13 15 18 25 149 189 194 201 213 231 239 238 234 231 226 221 215 210 206 201 202 206 212 220 229 234 232 218 207 197 190 186 182 180 179 179 178
339 339 338 338 339 340 341 341 341 342 343 344 345 346 347 349 350 350 349 345 346 349 354 358 3 7 8 7 8 10 11 13 17 22 27 31 37 44 50 48 31 0 328 290 252 237 230 224 218 211 204 199 200 204 209 216 222 223 214 191 176 167 164 165 163 165 169 174 177
341 340 340 340 341 343 344 344 345 345 346 346 346 347 348 350 352 351 350 348 351 354 358 3 9 12 13 12 13 14 15 17 20 24 27 30 32 34 35 33 27 14 356 335 270 236 226 222 216 208 201 196 196 198 199 199 192 164 123 103 90 85 84 88 89 96 109 128 146
342 342 343 343 344 345 346 347 347 348 347 347 347 348 350 352 353 353 352 352 354 357 1 7 13 16 17 16 16 17 19 22 24 27 29 29 29 30 32 33 27 18 10 5 350 230 214 211 204 197 189 185 181 175 166 149 131 116 103 93 84 74 68 66 67 65 62 58 58
344 344 345 346 347 347 348 349 349 349 349 348 348 351 353 356 356 355 354 354 356 359 4 11 16 18 19 19 21 22 24 27 28 30 31 31 29 30 32 34 29 24 20 20 26 44 147 175 171 166 161 154 148 140 132 124 116 108 100 91 85 76 69 65 64 61 55 48 45
347 347 347 348 348 349 349 350 350 350 350 350 352 354 355 357 356 356 356 356 359 3 8 14 16 18 20 23 25 27 28 31 32 32 32 32 31 31 32 34 32 29 26 25 30 38 56 89 113 123 125 124 123 122 121 118 109 101 92 86 82 75 68 61 59 56 52 45 41
350 350 349 349 349 350 351 351 351 352 353 354 355 356 356 356 357 358 359 1 4 7 11 14 16 19 22 27 29 31 32 35 34 34 33 33 32 32 32 33 33 32 30 29 32 36 42 52 67 82 95 107 111 113 112 110 101 93 87 80 78 75 71 64 58 53 48 44 40